{"data":{"norad_id":66976,"epoch":"2026-09-20T07:38:40.040736Z","epoch_age_seconds":96917,"freshness":"FRESH","line1":"1 66976U 25288T   26263.31851899  .00009718  00000+0  36212-3 0  9993","line2":"2 66976  43.0004   4.3102 0001630 270.9237  89.1428 15.27587005 45053","mean_motion":15.27587005,"eccentricity":0.000163,"inclination_deg":43.0004,"raan_deg":4.3102,"arg_perigee_deg":270.9237,"mean_anomaly_deg":89.1428,"bstar":0.00036212,"rev_number":4505,"period_min":94.266316438061,"perigee_km":481.90975071511,"apogee_km":484.14649054444,"semimajor_km":6861.1651206298,"source":"CELESTRAK","updated_at":"2026-09-21T09:00:36.065492Z"}}